Satellite: NOAA-15 Catalog number: 25338 Epoch time: 09297.40961483 Element set: 128 Inclination: 098.5974 deg RA of node: 283.8679 deg Eccentricity: 0.0011314 Arg of perigee: 046.1277 deg Mean anomaly: 314.0830 deg Mean motion: 14.24789496 rev/day Decay rate: 7.5e-07 rev/day^2 Epoch rev: 59517 Checksum: 345
Satellite: RESURS Catalog number: 25394 Epoch time: 09297.64131879 Element set: 340 Inclination: 098.3306 deg RA of node: 323.3361 deg Eccentricity: 0.0001101 Arg of perigee: 151.9267 deg Mean anomaly: 208.1971 deg Mean motion: 14.24189019 rev/day Decay rate: -1.4e-07 rev/day^2 Epoch rev: 58682 Checksum: 292
Satellite: FENGYUN1 Catalog number: 25730 Epoch time: 09296.98000828 Element set: 0931 Inclination: 098.7656 deg RA of node: 263.3463 deg Eccentricity: 0.0020907 Arg of perigee: 209.9092 deg Mean anomaly: 150.0885 deg Mean motion: 14.08022815 rev/day Decay rate: 5.46e-06 rev/day^2 Epoch rev: 53844 Checksum: 315
Satellite: OKEAN-0 Catalog number: 25860 Epoch time: 09296.57601627 Element set: 817 Inclination: 097.8021 deg RA of node: 272.7640 deg Eccentricity: 0.0001638 Arg of perigee: 089.1358 deg Mean anomaly: 271.0037 deg Mean motion: 14.73592751 rev/day Decay rate: 6.0e-08 rev/day^2 Epoch rev: 55205 Checksum: 303
Satellite: NOAA-16 Catalog number: 26536 Epoch time: 09297.42283027 Element set: 608 Inclination: 099.1795 deg RA of node: 304.2414 deg Eccentricity: 0.0009675 Arg of perigee: 278.3757 deg Mean anomaly: 081.6345 deg Mean motion: 14.12537791 rev/day Decay rate: 2.98e-06 rev/day^2 Epoch rev: 46854 Checksum: 345
Satellite: NOAA-17 Catalog number: 27453 Epoch time: 09297.70150590 Element set: 600 Inclination: 098.4675 deg RA of node: 352.2062 deg Eccentricity: 0.0012862 Arg of perigee: 105.9482 deg Mean anomaly: 254.3114 deg Mean motion: 14.24100746 rev/day Decay rate: 4.5e-07 rev/day^2 Epoch rev: 38118 Checksum: 286
Satellite: NOAA-18 Catalog number: 28654 Epoch time: 09297.71784120 Element set: 88 Inclination: 098.9205 deg RA of node: 240.0210 deg Eccentricity: 0.0014325 Arg of perigee: 001.6026 deg Mean anomaly: 358.5184 deg Mean motion: 14.11294712 rev/day Decay rate: -1.68e-06 rev/day^2 Epoch rev: 22822 Checksum: 287
Satellite: NOAA-19 Catalog number: 33591 Epoch time: 09297.72568942 Element set: 293 Inclination: 098.7597 deg RA of node: 240.1890 deg Eccentricity: 0.0013308 Arg of perigee: 234.3887 deg Mean anomaly: 125.6031 deg Mean motion: 14.10994396 rev/day Decay rate: -1.59e-06 rev/day^2 Epoch rev: 3670 Checksum: 340
/EX SB KEPS @ AMSAT $ORB09297.M Orbital Elements 09297.MISC
HR AMSAT ORBITAL ELEMENTS FOR MANNED AND MISCELLANEOUS SATELLITES FROM WA5QGD FORT WORTH,TX October 24, 2009 Send Subscribe/unsubscribe to KEPS at http://www.amsat.org/mailman/listinfo/keps BID: ORB09297.M TO ALL RADIO AMATEURS BT
Satellite: HUBBLE Catalog number: 20580 Epoch time: 09295.79166678 Element set: 466 Inclination: 028.4708 deg RA of node: 349.4660 deg Eccentricity: 0.0003641 Arg of perigee: 199.2731 deg Mean anomaly: 160.7743 deg Mean motion: 15.00842047 rev/day Decay rate: 3.30e-06 rev/day^2 Epoch rev: 86904 Checksum: 314
Satellite: ISS Catalog number: 25544 Epoch time: 09297.75735653 Element set: 847 Inclination: 051.6432 deg RA of node: 001.4349 deg Eccentricity: 0.0006330 Arg of perigee: 241.9070 deg Mean anomaly: 215.5703 deg Mean motion: 15.75334268 rev/day Decay rate: 2.5914e-04 rev/day^2 Epoch rev: 62636 Checksum: 302
Satellite: CO-58 Catalog number: 28895 Epoch time: 09296.72074216 Element set: 0425 Inclination: 098.0383 deg RA of node: 183.6041 deg Eccentricity: 0.0017338 Arg of perigee: 308.7696 deg Mean anomaly: 051.2023 deg Mean motion: 14.59806225 rev/day Decay rate: 1.81e-06 rev/day^2 Epoch rev: 21248 Checksum: 318
Satellite: FALCON Catalog number: 30776 Epoch time: 09296.67795794 Element set: 0689 Inclination: 035.4337 deg RA of node: 039.7844 deg Eccentricity: 0.0002173 Arg of perigee: 318.9592 deg Mean anomaly: 041.0960 deg Mean motion: 15.03338298 rev/day Decay rate: 4.97e-06 rev/day^2 Epoch rev: 14444 Checksum: 344
Satellite: MAST Catalog number: 31126 Epoch time: 09297.79726635 Element set: 714 Inclination: 097.9726 deg RA of node: 346.5581 deg Eccentricity: 0.0093627 Arg of perigee: 237.3676 deg Mean anomaly: 121.8595 deg Mean motion: 14.53524673 rev/day Decay rate: 9.9e-07 rev/day^2 Epoch rev: 13386 Checksum: 350
Satellite: CAPE1 Catalog number: 31130 Epoch time: 09296.72344178 Element set: 725 Inclination: 097.9752 deg RA of node: 343.4389 deg Eccentricity: 0.0101790 Arg of perigee: 246.9820 deg Mean anomaly: 112.0608 deg Mean motion: 14.52096394 rev/day Decay rate: 8.0e-07 rev/day^2 Epoch rev: 13334 Checksum: 300
Satellite: COMPASS Catalog number: 32787 Epoch time: 09297.22644294 Element set: 498 Inclination: 097.9278 deg RA of node: 359.8616 deg Eccentricity: 0.0015311 Arg of perigee: 337.1613 deg Mean anomaly: 022.8906 deg Mean motion: 14.81676761 rev/day Decay rate: 4.63e-06 rev/day^2 Epoch rev: 8055 Checksum: 337
Satellite: AAUSAT2 Catalog number: 32788 Epoch time: 09296.84585674 Element set: 492 Inclination: 097.9290 deg RA of node: 359.5666 deg Eccentricity: 0.0014951 Arg of perigee: 339.6446 deg Mean anomaly: 020.4116 deg Mean motion: 14.81801656 rev/day Decay rate: 4.3e-07 rev/day^2 Epoch rev: 8050 Checksum: 333
Satellite: DO-64 Catalog number: 32789 Epoch time: 09297.74502076 Element set: 508 Inclination: 097.9329 deg RA of node: 000.7067 deg Eccentricity: 0.0015185 Arg of perigee: 334.5189 deg Mean anomaly: 025.5272 deg Mean motion: 14.81826495 rev/day Decay rate: 6.74e-06 rev/day^2 Epoch rev: 8063 Checksum: 337
Satellite: CO-66 Catalog number: 32791 Epoch time: 09297.82486167 Element set: 490 Inclination: 097.9302 deg RA of node: 000.4863 deg Eccentricity: 0.0015763 Arg of perigee: 333.4297 deg Mean anomaly: 026.6103 deg Mean motion: 14.81496984 rev/day Decay rate: 5.78e-06 rev/day^2 Epoch rev: 8060 Checksum: 336
Satellite: RS-30 Catalog number: 32953 Epoch time: 09296.73158952 Element set: 0436 Inclination: 082.5044 deg RA of node: 176.6969 deg Eccentricity: 0.0018112 Arg of perigee: 260.3567 deg Mean anomaly: 099.5467 deg Mean motion: 12.43003062 rev/day Decay rate: 1.0e-07 rev/day^2 Epoch rev: 06436 Checksum: 305
Satellite: TACSAT-3 Catalog number: 35001 Epoch time: 09296.88252877 Element set: 126 Inclination: 040.4547 deg RA of node: 190.7883 deg Eccentricity: 0.0022883 Arg of perigee: 035.5837 deg Mean anomaly: 324.6519 deg Mean motion: 15.39381046 rev/day Decay rate: 3.056e-05 rev/day^2 Epoch rev: 2418 Checksum: 316
Satellite: PHARMSAT Catalog number: 35002 Epoch time: 09296.86983806 Element set: 122 Inclination: 040.4681 deg RA of node: 189.9522 deg Eccentricity: 0.0026441 Arg of perigee: 039.7984 deg Mean anomaly: 320.4776 deg Mean motion: 15.40115725 rev/day Decay rate: 2.865e-05 rev/day^2 Epoch rev: 2418 Checksum: 309
Satellite: HAWKSAT1 Catalog number: 35003 Epoch time: 09297.78085840 Element set: 129 Inclination: 040.4599 deg RA of node: 183.5241 deg Eccentricity: 0.0025950 Arg of perigee: 050.1029 deg Mean anomaly: 310.2120 deg Mean motion: 15.41035834 rev/day Decay rate: 6.760e-05 rev/day^2 Epoch rev: 2434 Checksum: 267
Satellite: CP6 Catalog number: 35004 Epoch time: 09297.77772542 Element set: 122 Inclination: 040.4594 deg RA of node: 183.5019 deg Eccentricity: 0.0025321 Arg of perigee: 049.8265 deg Mean anomaly: 310.5262 deg Mean motion: 15.41148409 rev/day Decay rate: 7.571e-05 rev/day^2 Epoch rev: 2433 Checksum: 287
Satellite: AEROCUB3 Catalog number: 35005 Epoch time: 09296.82542835 Element set: 0125 Inclination: 040.4739 deg RA of node: 189.6749 deg Eccentricity: 0.0024974 Arg of perigee: 040.5256 deg Mean anomaly: 319.7544 deg Mean motion: 15.40901194 rev/day Decay rate: 6.122e-05 rev/day^2 Epoch rev: 02418 Checksum: 307
Satellite: DRAGNSAT Catalog number: 35690 Epoch time: 09296.59854224 Element set: 0083 Inclination: 051.6421 deg RA of node: 002.0464 deg Eccentricity: 0.0005859 Arg of perigee: 043.0098 deg Mean anomaly: 317.1403 deg Mean motion: 15.84796896 rev/day Decay rate: 3.7857e-04 rev/day^2 Epoch rev: 01347 Checksum: 319
Satellite: POLLUX Catalog number: 35693 Epoch time: 09296.63243241 Element set: 0084 Inclination: 051.6408 deg RA of node: 002.2857 deg Eccentricity: 0.0005006 Arg of perigee: 001.1004 deg Mean anomaly: 359.0195 deg Mean motion: 15.83921768 rev/day Decay rate: 3.1987e-04 rev/day^2 Epoch rev: 01344 Checksum: 283
Satellite: CASTOR Catalog number: 35694 Epoch time: 09297.50125984 Element set: 80 Inclination: 051.6414 deg RA of node: 358.3576 deg Eccentricity: 0.0004777 Arg of perigee: 002.8963 deg Mean anomaly: 357.2711 deg Mean motion: 15.82028126 rev/day Decay rate: 1.8186e-04 rev/day^2 Epoch rev: 1357 Checksum: 315
Satellite: METEOR-M Catalog number: 35865 Epoch time: 09296.75569010 Element set: 36 Inclination: 098.7953 deg RA of node: 346.8256 deg Eccentricity: 0.0001947 Arg of perigee: 353.0423 deg Mean anomaly: 007.0726 deg Mean motion: 14.21826552 rev/day Decay rate: 1.76e-06 rev/day^2 Epoch rev: 512 Checksum: 301
Satellite: STERKH-2 Catalog number: 35866 Epoch time: 09297.72867789 Element set: 35 Inclination: 098.7959 deg RA of node: 347.8289 deg Eccentricity: 0.0002833 Arg of perigee: 340.2273 deg Mean anomaly: 019.8779 deg Mean motion: 14.22297362 rev/day Decay rate: 1.78e-06 rev/day^2 Epoch rev: 526 Checksum: 362
Satellite: FREGAT-I Catalog number: 35867 Epoch time: 09296.67401183 Element set: 0047 Inclination: 097.3685 deg RA of node: 346.0741 deg Eccentricity: 0.0010586 Arg of perigee: 155.0057 deg Mean anomaly: 205.1526 deg Mean motion: 15.22735169 rev/day Decay rate: 2.266e-05 rev/day^2 Epoch rev: 00547 Checksum: 305
/EX